Regional Weather Roundup
Issued by NWS Grand Forks, ND

Home | Current Version | Previous Version | Graphics & Text | Print | Product List | Glossary On
Versions: 1 2 3 4 5 6 7 8 9 10 11 12 13 14 15 16 17 18 19 20 21 22 23 24 25 26 27 28 29 30 31 32 33 34 35 36 37 38 39 40 41 42 43 44 45 46 47 48 49 50
000
ASUS43 KFGF 021610
RWRFGF
PRAIRIE TO PINES  WEATHER ROUNDUP
NATIONAL WEATHER SERVICE EASTERN NORTH DAKOTA/GRAND FORKS ND
1100 AM CDT TUE JUN 02 2015

 **SATELLITE DATA USED TO AUGMENT SKY COVER AT AUTOMATED STATIONS**
 *****  WEATHER ACROSS EASTERN NORTH DAKOTA  *****

CITY           SKY/WX    TMP DP  RH WIND       PRES   REMARKS
GRAND FORKS    CLOUDY    63  56  78 S13       29.82F
GRAND FRKS AFB CLOUDY    63  56  78 S10       29.81F
GRAND FRKS NWS   N/A     63 N/A N/A S12         N/A
DEVILS LAKE    CLOUDY    66  57  72 SE3       29.79S
FARGO          CLOUDY    65  55  70 S18G26    29.82F
WAHPETON ARPT  CLOUDY    64  54  68 SE15      29.88F
$$

 ***** WEATHER ACROSS CENTRAL AND WESTERN NORTH DAKOTA  *****

CITY           SKY/WX    TMP DP  RH WIND       PRES   REMARKS
BISMARCK       CLOUDY    69  63  81 SE6       29.77R
MINOT          CLOUDY    64  60  87 N9        29.80S
JAMESTOWN      CLOUDY    64  58  80 S13       29.78R
MINOT AFB      CLOUDY    64  64 100 E10       29.79F
GARRISON         N/A     68  60  75 N5        29.80R
WILLISTON      HVY RAIN  57  55  93 NE7       29.81S FOG
DICKINSON      PTSUNNY   68  58  70 VRB5      29.80R
HETTINGER      SUNNY     71  57  61 SW7       29.80F
$$

 *****  OTHER AIRPORT OBSERVATIONS IN OUR AREA  *****

CITY           SKY/WX    TMP DP  RH WIND       PRES   REMARKS
WALHALLA       LGT RAIN  59  59 100 MISG      29.84R
GRAFTON AIRPOR CLOUDY    61  59  94 S13       29.84S
VALLEY CITY AR FAIR      61  61 100 S15G22    29.78S
CANDO          CLOUDY    59  59 100 NE6       29.81S
CAVALIER APRT  PTSUNNY   63  59  88 CALM      29.84R
GWINNER        NOT AVBL
SHEYENNE NWR     N/A     62  59  89 SE14      29.95
ROLLA          CLOUDY    55  55 100 NE20      29.84F
 ***** THE ABOVE OBSERVATIONS ARE NON NWS ARE NOT QUALITY
       CONTROLLED AND MAY MIS-REPORT RAIN FOR SNOW...
$$

  *****  WEATHER ACROSS NORTHERN MINNESOTA  *****

CITY           SKY/WX    TMP DP  RH WIND       PRES   REMARKS
FLAG ISLAND    NOT AVBL
WARROAD        CLOUDY    64  57  77 S6        29.86F
ROSEAU         CLOUDY    66  57  72 S8        29.84F
HALLOCK        CLOUDY    64  57  77 S16       29.83R
THF RVR FALLS  CLOUDY    61  55  82 S7        29.86R
BAUDETTE       CLOUDY    62  52  69 S8        29.89F
WASKISH        CLOUDY    57  54  88 SE7       29.90F
CROOKSTON      CLOUDY    64  59  82 S13       29.84R
STEPHEN NDAWN    N/A     64  59  82 S16         N/A
GREENBUSH NDAW   N/A     66  57  72 S12         N/A
$$
  *****  WEATHER ACROSS CENTRAL AND WEST MINNESOTA  *****

CITY           SKY/WX    TMP DP  RH WIND       PRES   REMARKS
FOSSTON        CLOUDY    59  55  88 SE14      29.85F
BEMIDJI        CLOUDY    59  54  85 S6        29.92S
PARK RAPIDS    CLOUDY    72  52  49 S22G28    29.94F
ELBOW LAKE     CLOUDY    66  55  66 S20G26    29.92F
WADENA         CLOUDY    68  54  60 S15G21    29.95F
DETROIT LAKES  CLOUDY    68  54  60 S20       29.91F
MOORHEAD       CLOUDY    64  55  72 S22       29.85F
FERGUS FALLS   CLOUDY    66  54  63 S20       29.91F
MORRIS MN      CLOUDY    68  55  64 S21       29.93F
STAPLES        PTSUNNY   68  52  56 S14       29.98R
$$
  *****  WEATHER ELSEWHERE ACROSS MINNESOTA  *****

CITY           SKY/WX    TMP DP  RH WIND       PRES   REMARKS
DULUTH         MOSUNNY   63  45  51 S10       30.03F
INTRNTL FALLS  LGT RAIN  58  47  66 S6        29.94S
ELY            CLOUDY    64  43  45 S7G18     30.01S
CLOQUET        SUNNY     68  46  45 SE9G17    30.01F
WHEATON        CLOUDY    64  54  68 SE16      29.90F
BRAINERD       PTSUNNY   69  53  56 S12G20    29.99S
HIBBING        PTSUNNY   66  45  46 S8        29.99F
ALEXANDRIA     CLOUDY    68  53  58 S18       29.99R
SAINT CLOUD    MOSUNNY   69  54  58 S17G25    30.00R
MINNEAPOLIS    PTSUNNY   69  52  54 S18G25    30.04F
$$

  *****  WEATHER ACROSS SOUTH DAKOTA  *****

CITY           SKY/WX    TMP DP  RH WIND       PRES   REMARKS
SIOUX FALLS    CLOUDY    68  56  65 S18       29.93S
BROOKINGS      PTSUNNY   66  55  68 S16G23    29.93F
WATERTOWN      CLOUDY    68  57  68 S16       29.87F
HURON          PTSUNNY   71  59  65 SE21G30   29.81F
SISSETON         N/A     64  58  80 S13G24    29.83F
ABERDEEN       CLOUDY    66  60  81 S21G28    29.80S
MITCHELL       PTSUNNY   75  60  59 S22       29.86S
PIERRE         SUNNY     77  61  57 S17       29.73F
MOBRIDGE       SUNNY     77  62  59 SE15      29.72S
RAPID CITY     SUNNY     74  57  55 N12       29.81S
$$

  *****  SOME WEATHER IN NEARBY STATES *****

CITY           SKY/WX    TMP DP  RH WIND       PRES   REMARKS
GLASGOW MT     LGT RAIN  54  50  86 N8        29.88S
GREAT FALLS MT CLOUDY    59  50  72 S8        29.89R
CHEYENNE WY    SUNNY     72  51  47 SW6       30.00F
SCOTTSBLUFF NE MOSUNNY   72  59  63 VRB5      29.90F
OMAHA NE       PTSUNNY   67  55  65 SE21      30.02R
DES MOINES IA  CLOUDY    63  53  70 S15       30.08F
DAVENPORT IA   MOSUNNY   66  49  54 S7        30.14F
CHICAGO IL     MOSUNNY   65  45  48 CALM      30.17F
EAU CLAIRE WI  SUNNY     66  47  50 SE9       30.10F
LA CROSSE WI   SUNNY     66  48  52 S8        30.12F
$$

  *****  SOME NATIONAL WEATHER *****

CITY           SKY/WX    TMP DP  RH WIND       PRES   REMARKS
LA GUARDIA NY  DRIZZLE   53  49  86 NE9       30.15S
RALEIGH NC     LGT RAIN  71  68  90 CALM      30.06S
ATLANTA GA     MOSUNNY   79  62  56 CALM      30.04F
NEW ORLEANS LA MOSUNNY   83  71  67 N12       30.01S
OKLAHOMA CITY  PTSUNNY   81  64  56 S17       30.00F
ALBUQUERQUE NM MOSUNNY   72  35  25 S3        30.17F
SALT LAKE CITY MOSUNNY   70  51  51 NW5       29.96S
LOS ANGELES CA CLOUDY    62  57  83 SE6       30.01R
BOISE ID       MOSUNNY   64  45  49 VRB6      30.02R
SEATTLE WA     CLOUDY    56  52  86 SW12      30.02R
$$

*** WEATHER ACROSS MANITOBA...SASKATCHEWAN AND ONTARIO ***
                ***ONTARIO***

CITY           SKY/WX    TMP DP  RH WIND       PRES   REMARKS
GERALDTON      PTSUNNY   64  37  36 SW21G32   30.06F
THUNDER BAY    PTSUNNY   61  43  51 NE7       30.06F
SIOUX LOOKOUT  LGT RAIN  54  50  87 SW6       29.94S
TORONTO        MOSUNNY   61  48  63 S12       30.22S
BIG TROUT LK   PTSUNNY   55  54  94 W9        29.75F
PICKLE LAKE    PTSUNNY   63  41  45 SW15      29.87F
DRYDEN         CLOUDY    55  50  82 S8        29.92F
KENORA         CLOUDY    64  50  59 S9        29.88S
$$
                *** MANITOBA***

CITY           SKY/WX    TMP DP  RH WIND       PRES   REMARKS
BRANDON        CLOUDY    63  50  63 NE24G33   29.88S
DAUPHIN        MOSUNNY   61  46  59 NE17      29.94F
ISLAND LAKE    MOSUNNY   55  41  58 W12       29.83F
PILOT MOUND      N/A     57  55  94 N14G22      N/A
THE PAS        MOSUNNY   54  32  43 NW15      29.96F
THOMPSON       PTSUNNY   50  32  50 W17G28    29.83S
WINNIPEG       CLOUDY    64  55  72 NE14G23   29.84S
LYNN LAKE      PTSUNNY   45  30  57 NW21G29   29.89R
CHURCHILL      CLOUDY    43  36  75 W23G30    29.54R
GILLAM         PTSUNNY   48  36  61 W17G30    29.73R
$$
                ***SASKATCHEWAN***

CITY           SKY/WX    TMP DP  RH WIND       PRES   REMARKS
ESTEVAN          N/A     61  46  59 E22G29    29.87R
KINDERSLEY     NOT AVBL
LLOYDMINSTER   PTSUNNY   54  37  54 SE12      30.06S
PRINCE ALBERT  CLOUDY    52  36  54 N5        30.06F
REGINA         CLOUDY    61  46  59 NE15G22   29.95F
YORKTON        SUNNY     59  39  47 N15G21    29.96F
N. BATTLEFORD  SUNNY     54  39  58 E7        30.08F
LA RONGE       PTSUNNY   54  30  40 NW14G23   30.03F
SASKATOON      PTSUNNY   55  34  44 NE14      30.05F
SWIFT CURRENT  MOSUNNY   55  46  71 E16       29.97R
$$
NOTE: THESE ARE AUTOMATED STATIONS WITH LIMITED QUALITY CONTROL
      "FAIR" INDICATES FEW OR NO CLOUDS BELOW 12,000 FEET WITH NO
      SIGNIFICANT WEATHER AND/OR OBSTRUCTIONS TO VISIBILITY.
      SKY/WX - SKY CONDITION AND SIGNIFICANT WEATHER.
      TMP - AIR TEMPERATURE.    DP   - DEWPOINT TEMPERATURE.
      RH  - RELATIVE HUMIDITY.  PRES - PRESSURE.
      HX  - HEAT INDEX.         WCI  - WIND CHILL INDEX.
$



USA.gov is the U.S. government's official web portal to all federal, state and local government web resources and services.